Temp
8 8 8 8 9 9 9 9 9 9 9 9 9 9 9 9 9 9 10 10 10 10 10 10 10 10 10 10 9 9 9 9 9 9 8 9 9 9 10 10 10 10 10 9 8
8 8 8 8 8 9 9 9 9 9 9 9 9 9 9 9 9 9 10 10 10 10 9 9 10 9 9 10 9 9 9 9 9 8 9 9 9 9 9 9 10 10 9 9 9
8 8 8 8 8 8 8 8 8 8 8 9 9 9 9 9 9 9 9 9 9 9 9 9 9 9 9 9 9 9 9 9 9 8 9 9 9 9 9 10 9 10 10 9 8
8 8 8 8 8 8 8 8 8 8 8 8 8 8 9 9 9 9 9 9 9 9 8 8 8 9 9 8 8 8 9 8 9 9 9 9 9 9 9 9 9 10 10 10 9
7 7 7 7 7 8 8 8 8 8 8 8 8 8 8 8 8 8 8 8 8 8 9 9 8 8 8 8 7 7 7 7 8 8 8 8 8 8 9 8 9 9 9 9 9
7 7 7 7 7 7 7 7 7 7 7 7 7 8 8 8 8 8 8 8 8 8 8 8 8 8 8 8 7 7 7 7 8 8 8 8 8 8 8 8 8 8 8 8 7
7 7 7 7 7 7 7 7 7 7 7 7 7 7 8 8 8 8 8 8 8 7 7 8 7 7 7 7 7 7 7 7 8 7 7 6 8 8 8 8 8 8 7 6 6
6 6 6 6 6 6 6 6 7 7 7 7 7 7 8 8 8 8 8 8 7 7 7 7 7 6 7 6 6 6 6 7 7 6 6 6 6 8 7 8 9 9 8 7 6
6 6 6 6 6 6 6 6 6 7 7 7 7 7 7 8 8 8 8 7 7 7 7 6 6 6 6 6 5 6 6 6 6 6 6 5 5 6 7 7 8 8 7 6 7
5 5 6 5 5 6 6 6 6 6 6 6 6 6 7 8 7 7 7 7 7 6 6 6 5 6 6 6 6 6 5 5 5 6 6 6 6 5 6 7 8 7 7 8 8
5 5 5 5 5 5 5 5 5 5 6 6 6 6 5 6 6 7 6 6 6 6 5 5 5 5 6 5 5 5 4 4 5 5 5 5 5 6 6 7 7 6 7 8 7
5 5 4 4 4 5 5 5 5 4 5 6 5 5 5 6 6 6 6 6 5 5 4 4 4 5 4 4 4 4 4 4 4 4 4 5 5 6 7 6 6 6 7 6 5
4 4 4 4 4 4 4 4 4 4 4 6 6 5 5 5 5 6 5 5 4 4 4 4 4 4 4 3 4 4 4 4 3 4 4 4 4 5 6 5 5 5 6 5 5
3 3 3 3 3 3 3 3 3 3 3 3 4 5 5 4 4 4 4 3 3 4 3 2 3 3 3 3 3 3 4 3 3 3 3 3 2 3 5 4 4 5 5 5 5
3 3 3 2 2 2 2 2 2 2 -0 3 3 4 3 4 3 3 3 3 3 2 2 3 3 3 4 4 3 4 4 3 3 3 2 2 2 4 5 5 5 5 5 5 5
2 2 2 2 2 1 1 0 1 1 0 3 3 3 3 3 3 3 3 3 3 2 2 3 3 3 3 3 3 3 2 2 2 2 -1 2 2 4 5 4 5 5 5 5 4
2 2 1 1 2 1 1 -0 -0 -1 2 2 3 3 2 3 3 3 3 3 3 3 2 3 3 3 3 3 2 2 1 1 -1 -3 -2 3 3 4 4 4 4 4 4 4 3
1 1 1 1 1 0 -0 -1 -1 1 2 2 2 2 2 3 3 2 2 3 3 2 2 2 3 3 2 2 2 2 1 1 -4 -3 -2 2 1 3 3 3 2 2 2 3 3
0 1 0 1 0 0 -0 -1 -0 0 2 2 1 1 1 2 2 2 2 2 2 2 2 1 2 2 2 1 1 1 1 1 1 1 -2 1 1 1 2 1 1 1 1 1 1
1 0 0 -0 -1 -1 -1 -1 -1 1 1 1 -0 1 1 1 1 1 1 1 1 1 1 1 1 1 1 1 0 0 0 -0 -0 -5 -6 -1 0 1 0 1 0 -0 -1 -1 -1
-1 -1 -1 -1 -1 -1 -2 -2 -1 -1 0 0 0 1 0 1 1 0 0 -0 -0 0 1 0 0 0 -0 -1 -1 -1 -1 -1 -1 -1 -5 -5 -1 0 -0 -1 -2 -2 -3 -3 -4
-2 -2 -2 -1 -1 -2 -2 -1 -1 -1 -1 -1 -0 -0 -0 -0 -0 0 -0 -1 -1 -1 -1 -1 -1 -2 -1 -1 -1 -1 -2 -2 -3 -2 -2 -2 -2 -1 -1 -3 -3 -4 -4 -4 -5
-2 -2 -2 -2 -2 -2 -2 -2 -2 -2 -2 -2 -2 -1 -1 -2 -2 -2 -1 -1 -2 -2 -2 -2 -3 -3 -2 -2 -2 -2 -2 -4 -4 -4 -4 -4 -3 -2 -3 -3 -3 -4 -4 -5 -5
-2 -3 -3 -2 -2 -2 -2 -2 -2 -2 -2 -2 -2 -3 -3 -3 -3 -3 -3 -2 -2 -3 -3 -3 -3 -3 -3 -3 -4 -4 -4 -4 -5 -6 -6 -5 -4 -2 -3 -3 -4 -5 -5 -6 -6
-2 -3 -2 -3 -2 -3 -3 -3 -3 -4 -4 -4 -3 -4 -4 -4 -4 -4 -4 -4 -4 -3 -4 -4 -5 -5 -4 -5 -5 -5 -4 -4 -5 -5 -7 -4 -5 -4 -5 -6 -7 -7 -7 -7 -7
-3 -3 -3 -3 -2 -3 -4 -3 -3 -5 -4 -4 -4 -4 -5 -5 -4 -4 -4 -5 -5 -5 -5 -5 -6 -6 -5 -6 -6 -7 -5 -6 -6 -6 -7 -6 -7 -6 -7 -8 -8 -8 -8 -8 -8
-5 -5 -4 -3 -3 -4 -3 -3 -3 -5 -5 -5 -5 -6 -6 -5 -5 -6 -6 -6 -5 -6 -6 -6 -7 -7 -8 -8 -8 -9 -4 -5 -6 -6 -7 -8 -8 -9 -8 -8 -8 -9 -9 -9 -9
Height
3175 3176 3176 3177 3177 3177 3178 3178 3178 3178 3178 3178 3178 3178 3178 3178 3178 3178 3178 3179 3177 3177 3177 3177 3177 3177 3177 3177 3177 3177 3178 3178 3180 3179 3179 3178 3176 3176 3177 3176 3176 3175 3175 3173 3171
3172 3174 3174 3175 3175 3175 3175 3176 3176 3176 3176 3175 3176 3175 3175 3175 3175 3175 3176 3175 3175 3174 3175 3175 3175 3174 3175 3174 3175 3175 3176 3177 3177 3176 3176 3176 3175 3174 3173 3172 3174 3172 3172 3169 3167
3170 3171 3171 3172 3172 3173 3173 3173 3173 3173 3173 3173 3172 3172 3172 3172 3173 3173 3172 3172 3172 3172 3172 3172 3172 3172 3172 3170 3171 3170 3172 3173 3174 3174 3172 3171 3172 3171 3168 3166 3169 3167 3166 3166 3164
3167 3168 3168 3168 3169 3170 3170 3170 3170 3170 3170 3170 3170 3169 3169 3170 3173 3170 3170 3170 3170 3169 3169 3169 3169 3168 3168 3168 3167 3166 3167 3168 3169 3169 3168 3167 3166 3166 3164 3164 3161 3162 3161 3160 3160
3163 3164 3164 3165 3166 3167 3167 3167 3167 3167 3167 3166 3166 3166 3166 3167 3168 3167 3166 3166 3166 3166 3166 3165 3165 3165 3164 3164 3164 3162 3163 3163 3164 3165 3164 3162 3161 3159 3160 3159 3158 3157 3157 3156 3155
3159 3159 3160 3161 3162 3163 3163 3163 3163 3163 3163 3162 3162 3162 3162 3163 3163 3163 3163 3162 3162 3162 3162 3162 3161 3162 3161 3160 3161 3159 3159 3159 3158 3159 3157 3156 3156 3155 3157 3154 3153 3154 3154 3152 3150
3153 3155 3155 3156 3157 3157 3158 3158 3158 3158 3158 3158 3158 3158 3158 3159 3158 3157 3158 3158 3157 3157 3157 3156 3157 3158 3156 3156 3154 3154 3154 3154 3156 3154 3152 3151 3152 3151 3150 3149 3148 3149 3148 3147 3139
3148 3149 3150 3151 3152 3152 3153 3153 3153 3153 3153 3153 3153 3153 3152 3153 3153 3152 3152 3153 3152 3152 3152 3152 3152 3153 3153 3152 3151 3152 3150 3150 3152 3149 3148 3147 3145 3147 3147 3145 3144 3143 3141 3136 3132
3143 3143 3144 3145 3146 3147 3147 3148 3148 3148 3148 3148 3148 3148 3148 3147 3147 3147 3147 3147 3147 3147 3147 3147 3147 3148 3149 3147 3148 3147 3146 3146 3147 3147 3145 3144 3139 3142 3141 3138 3137 3135 3133 3128 3126
3137 3138 3138 3139 3140 3141 3141 3142 3142 3142 3143 3143 3143 3145 3143 3143 3142 3142 3142 3143 3143 3143 3143 3144 3143 3144 3145 3144 3145 3145 3143 3143 3142 3144 3141 3139 3134 3134 3135 3135 3132 3130 3125 3123 3123
3130 3132 3132 3132 3134 3135 3136 3137 3140 3138 3137 3139 3138 3138 3137 3139 3138 3138 3137 3137 3138 3139 3138 3139 3138 3140 3142 3141 3141 3140 3140 3138 3139 3139 3135 3133 3130 3130 3129 3129 3129 3124 3121 3120 3118
3123 3125 3125 3126 3128 3129 3131 3131 3131 3132 3130 3132 3131 3129 3129 3131 3130 3132 3132 3131 3130 3131 3131 3132 3132 3136 3135 3136 3136 3136 3134 3133 3133 3133 3131 3127 3125 3125 3125 3122 3121 3119 3117 3114 3113
3116 3118 3119 3119 3121 3123 3124 3125 3125 3125 3123 3123 3123 3121 3120 3124 3120 3122 3124 3121 3122 3125 3126 3125 3128 3129 3128 3129 3130 3130 3129 3129 3129 3128 3127 3123 3118 3119 3120 3116 3116 3114 3112 3113 3112
3109 3111 3111 3112 3117 3117 3118 3119 3120 3120 3117 3112 3112 3109 3110 3111 3113 3112 3115 3118 3116 3119 3122 3120 3121 3123 3124 3124 3127 3125 3125 3125 3125 3125 3122 3122 3111 3113 3112 3111 3111 3111 3110 3109 3108
3101 3103 3104 3104 3106 3111 3113 3113 3115 3117 3116 3108 3106 3106 3105 3108 3109 3109 3110 3111 3112 3114 3117 3116 3117 3119 3121 3123 3124 3125 3125 3124 3122 3119 3116 3116 3115 3105 3104 3105 3106 3107 3106 3105 3104
3092 3094 3096 3096 3099 3104 3106 3108 3112 3115 3105 3102 3102 3102 3103 3104 3106 3107 3109 3109 3110 3112 3113 3115 3116 3117 3118 3119 3120 3120 3120 3120 3117 3115 3114 3110 3110 3103 3102 3102 3102 3103 3104 3103 3103
3082 3085 3087 3088 3092 3095 3098 3102 3106 3101 3099 3098 3098 3099 3101 3103 3104 3105 3107 3108 3110 3110 3111 3111 3111 3113 3114 3115 3115 3116 3117 3115 3114 3114 3109 3105 3104 3100 3098 3096 3097 3098 3099 3101 3100
3072 3076 3077 3079 3083 3086 3088 3094 3091 3088 3091 3093 3095 3096 3097 3099 3101 3102 3104 3104 3106 3107 3107 3107 3106 3107 3106 3108 3111 3112 3113 3115 3118 3111 3104 3106 3102 3097 3095 3094 3092 3092 3095 3095 3096
3061 3064 3069 3071 3074 3076 3080 3081 3075 3081 3087 3088 3091 3092 3094 3095 3098 3098 3098 3098 3099 3101 3103 3102 3101 3099 3100 3101 3105 3106 3106 3108 3108 3107 3104 3096 3096 3092 3091 3091 3091 3090 3089 3088 3089
3052 3056 3058 3061 3065 3067 3070 3068 3071 3076 3080 3083 3085 3089 3088 3089 3092 3092 3093 3090 3092 3093 3095 3096 3099 3098 3098 3099 3100 3101 3102 3101 3102 3107 3107 3091 3089 3086 3086 3087 3087 3088 3087 3085 3083
3044 3048 3052 3053 3058 3059 3059 3062 3067 3070 3074 3078 3079 3081 3082 3084 3085 3086 3086 3085 3086 3088 3090 3091 3092 3092 3092 3091 3092 3095 3095 3096 3097 3097 3094 3094 3085 3081 3082 3082 3085 3083 3081 3080 3079
3035 3039 3045 3047 3050 3049 3051 3054 3060 3064 3067 3069 3071 3074 3076 3077 3078 3081 3081 3081 3080 3082 3084 3085 3086 3083 3085 3087 3089 3087 3087 3089 3088 3088 3086 3085 3081 3079 3079 3077 3078 3076 3075 3072 3071
3029 3032 3035 3037 3037 3040 3042 3048 3052 3056 3057 3061 3063 3062 3066 3068 3071 3068 3072 3073 3072 3074 3074 3078 3078 3078 3077 3080 3078 3081 3081 3080 3080 3082 3079 3080 3073 3077 3074 3074 3071 3070 3067 3064 3061
3021 3023 3026 3028 3031 3034 3038 3041 3043 3048 3047 3051 3054 3056 3054 3056 3058 3060 3060 3064 3066 3065 3067 3069 3069 3068 3069 3073 3074 3074 3073 3076 3076 3078 3074 3068 3065 3067 3069 3067 3065 3062 3060 3056 3053
3006 3009 3014 3015 3019 3025 3029 3032 3036 3038 3040 3042 3043 3044 3047 3047 3050 3052 3056 3057 3058 3059 3059 3062 3061 3061 3061 3063 3066 3066 3065 3064 3065 3067 3067 3058 3058 3056 3057 3053 3052 3050 3049 3048 3044
2996 2997 3004 3009 3013 3018 3020 3023 3027 3032 3033 3033 3036 3040 3041 3041 3041 3045 3048 3050 3050 3051 3052 3053 3054 3055 3053 3056 3058 3056 3052 3054 3053 3054 3050 3048 3045 3048 3044 3042 3041 3039 3039 3037 3033
2989 2992 2998 3000 3002 3007 3010 3014 3017 3023 3025 3025 3028 3034 3034 3033 3035 3039 3042 3044 3045 3045 3046 3048 3047 3050 3047 3048 3048 3046 3040 3042 3041 3040 3039 3037 3037 3036 3036 3034 3031 3031 3030 3026 3024
Wind_Speed
10 10 9 9 8 8 8 8 8 8 9 9 10 10 10 11 12 11 10 10 11 11 11 11 11 11 11 9 9 9 9 5 1 4 2 6 14 20 19 18 15 19 15 11 12
12 12 11 11 11 10 10 11 11 11 11 12 12 12 12 12 12 13 13 13 11 11 11 10 11 11 11 11 9 10 10 6 6 9 14 15 17 22 24 24 17 17 15 18 20
15 14 14 14 13 13 13 13 13 13 14 14 14 14 14 14 14 14 11 6 5 6 7 8 11 13 15 18 14 16 14 12 9 14 19 20 20 22 24 26 20 18 17 15 20
17 17 17 16 16 15 15 15 15 15 15 15 15 15 15 14 10 8 13 15 15 15 16 16 18 18 17 16 14 17 16 14 15 15 18 23 24 21 22 22 20 17 16 18 17
19 19 19 19 18 18 17 16 15 16 16 17 18 18 18 16 14 14 15 16 16 16 16 16 15 14 15 14 15 19 20 21 22 21 22 26 27 24 15 16 15 16 13 13 14
22 21 21 20 20 19 19 19 19 19 20 20 20 20 20 20 16 14 15 16 17 17 17 17 19 20 21 22 21 24 25 24 23 26 21 16 15 18 14 19 19 17 18 22 24
24 23 22 22 21 22 22 22 21 21 20 20 21 21 21 19 19 19 18 19 19 20 21 22 22 21 22 23 22 20 24 27 20 10 15 17 19 18 19 24 27 23 23 26 31
25 24 24 24 24 23 22 21 21 21 20 20 20 21 22 21 20 20 20 20 21 22 22 23 22 22 23 24 26 25 24 19 14 12 18 19 23 23 28 32 30 24 18 24 26
27 25 24 25 23 23 22 22 22 23 22 22 22 22 23 22 20 18 17 16 16 16 18 19 18 18 19 20 20 17 15 17 13 11 18 22 30 30 33 31 26 19 23 27 28
27 26 25 25 24 24 24 22 22 23 23 24 24 23 21 22 20 20 21 21 21 19 18 18 19 17 18 18 18 17 15 16 21 21 28 29 36 30 25 17 15 17 17 22 22
27 26 26 25 25 24 23 22 22 25 24 23 23 25 24 23 24 22 23 24 25 26 25 23 23 24 20 19 19 19 20 25 26 25 29 33 30 25 22 16 13 13 22 23 24
27 27 27 26 24 23 23 23 25 27 28 27 26 28 29 27 29 29 31 34 33 30 25 25 26 22 15 14 17 22 27 29 28 20 19 21 25 26 22 26 18 21 25 24 26
27 25 27 27 29 27 27 29 27 27 30 33 33 34 32 30 35 36 36 38 35 31 30 30 24 23 19 16 20 23 24 25 18 15 18 24 25 25 15 18 17 20 20 23 25
30 30 32 33 32 30 29 27 25 23 22 22 23 23 22 25 28 30 29 29 29 24 20 18 15 14 15 19 19 19 12 10 11 16 13 13 9 12 6 17 20 22 24 23 23
35 36 36 34 34 29 27 21 18 14 5 5 11 11 10 7 6 3 7 12 16 15 13 8 4 5 6 6 9 12 11 16 21 20 21 20 13 4 14 14 15 15 19 22 22
37 35 34 34 34 28 24 18 12 7 9 7 9 11 12 10 8 5 6 6 6 8 9 10 9 11 9 9 13 12 14 16 15 18 4 4 8 4 2 7 8 14 19 20 20
34 32 31 32 32 28 24 18 12 10 6 9 11 10 9 6 6 6 6 6 6 6 7 8 12 12 16 18 16 14 10 4 2 2 5 10 13 14 13 14 13 18 17 19 20
29 33 29 37 31 31 26 24 16 9 19 12 10 10 8 7 7 7 10 12 13 11 11 11 9 12 11 14 11 12 9 4 5 3 5 20 10 8 10 12 14 18 21 23 23
32 33 31 39 36 34 32 33 19 23 20 19 14 13 14 13 15 19 24 26 20 20 16 10 10 13 16 15 15 8 11 11 15 23 8 8 10 16 21 20 16 18 21 24 25
32 32 35 34 26 35 32 30 21 19 19 22 21 14 10 9 13 13 19 13 18 25 23 18 15 19 22 21 16 14 11 7 7 1 4 8 10 11 12 20 18 18 16 19 20
27 16 22 26 29 32 37 37 29 25 26 26 26 23 21 21 19 16 13 18 17 18 20 21 21 20 18 14 12 11 14 13 13 16 4 2 9 17 18 22 19 17 20 22 26
28 26 28 33 34 37 39 38 33 27 29 29 30 30 32 30 27 29 25 23 18 21 23 24 16 22 28 25 17 16 24 24 15 8 14 18 28 34 32 17 13 26 28 28 28
28 35 34 33 36 39 39 37 38 34 34 34 33 34 33 31 27 31 35 32 26 26 17 22 16 13 15 15 14 15 19 16 13 18 22 11 13 17 18 20 28 41 40 42 47
35 32 33 34 35 37 37 34 31 35 34 32 34 31 29 30 29 17 22 26 30 28 24 23 26 23 22 9 7 11 17 21 23 15 20 32 37 42 42 47 50 49 48 50 53
42 37 37 26 43 39 34 34 33 38 33 30 33 34 29 28 28 31 21 23 25 28 25 24 28 27 34 32 31 35 38 38 35 36 29 47 46 47 45 45 41 41 41 42 44
35 38 36 32 29 29 29 32 37 32 30 33 34 30 30 30 30 25 33 32 26 26 32 33 28 25 32 29 29 31 39 38 41 42 45 45 44 33 30 32 36 37 38 39 37
26 24 26 30 31 34 40 38 35 33 35 34 31 27 27 29 29 30 28 27 30 30 32 27 23 20 27 24 22 23 44 37 32 32 31 30 27 22 26 29 34 35 39 41 41
Wind_Direction
265 272 275 279 283 288 291 292 293 295 297 297 298 299 299 302 302 301 299 297 296 298 296 295 294 293 293 292 293 294 288 300 304 313 283 278 278 298 307 310 301 307 302 285 268
264 268 271 273 276 279 282 286 288 290 290 292 292 292 291 290 292 294 291 288 284 283 283 283 283 288 291 294 293 293 287 299 235 255 255 254 273 291 294 298 307 300 306 296 290
263 266 269 272 275 279 282 285 287 289 290 290 291 291 291 294 296 297 292 296 299 290 285 283 283 285 291 292 299 289 290 291 281 276 281 287 291 294 299 299 313 297 290 280 273
263 267 270 273 276 279 281 284 285 287 289 290 291 291 292 294 302 296 293 293 290 284 281 280 283 287 288 289 293 289 298 305 297 297 299 303 299 301 295 313 299 303 292 288 279
266 269 272 274 277 278 279 280 280 282 284 286 287 288 288 287 287 285 285 286 287 289 288 285 283 281 284 284 284 290 298 291 300 301 308 305 303 301 317 307 302 304 307 302 303
263 265 268 272 273 275 277 279 281 283 285 285 285 285 285 289 287 281 276 278 277 280 279 280 277 284 286 286 286 289 290 296 301 311 301 298 305 311 319 307 310 321 317 314 306
262 265 266 269 271 273 276 279 280 282 282 284 286 286 284 284 285 281 279 273 274 273 274 272 276 279 281 287 284 286 295 298 318 330 322 317 305 311 316 310 314 316 305 292 282
262 265 268 270 273 274 275 277 279 280 282 283 283 284 285 286 282 280 277 275 273 273 272 273 272 270 273 274 275 286 291 302 320 321 317 299 298 300 306 308 311 312 296 291 289
262 262 265 267 269 272 273 275 278 280 281 281 281 282 283 283 278 277 274 273 271 271 269 268 268 266 270 271 278 281 287 300 299 287 302 302 300 305 303 312 320 315 303 295 288
260 263 263 266 268 269 271 273 275 276 277 279 279 278 270 272 273 274 276 273 270 271 269 267 265 265 268 274 274 296 280 276 280 286 289 293 294 299 311 321 327 314 280 284 291
257 258 261 262 265 266 268 269 274 280 277 276 274 273 270 270 271 269 267 265 266 267 272 270 268 272 287 285 284 278 279 282 285 289 286 287 290 305 312 313 305 272 285 283 288
253 256 257 260 261 266 268 273 276 276 278 278 275 271 270 270 267 264 264 265 265 268 268 266 269 289 272 256 262 263 266 275 287 293 289 298 295 300 305 302 275 273 272 288 295
246 248 257 261 263 261 267 275 278 281 286 280 277 271 269 265 263 259 258 261 267 270 272 272 273 276 263 247 256 260 270 284 287 298 298 301 296 301 312 282 280 276 270 280 287
249 255 260 262 260 261 267 268 273 282 288 281 273 261 257 251 255 258 259 257 263 269 270 272 272 261 249 255 251 264 260 273 291 291 285 292 287 291 317 264 258 261 267 275 277
255 260 261 259 260 262 263 258 263 274 291 240 220 225 234 233 229 242 235 239 243 246 231 234 234 218 247 249 260 271 265 278 286 283 280 278 262 141 278 248 254 254 247 256 269
255 258 254 254 256 258 243 242 244 221 244 218 213 225 232 232 223 215 199 192 189 216 227 236 244 252 255 280 285 280 261 277 267 265 266 289 231 262 296 316 259 246 250 266 271
242 249 247 247 250 236 234 220 202 210 171 219 219 225 225 207 208 216 225 226 226 209 217 230 258 256 279 274 258 255 256 290 308 188 220 193 314 257 273 292 258 258 268 267 260
226 235 240 241 237 223 206 193 215 221 202 199 200 216 217 214 244 263 262 255 252 242 247 259 262 263 250 240 247 214 217 219 236 229 254 285 272 277 283 279 275 259 266 269 255
243 225 238 229 232 229 203 201 216 221 207 214 217 237 245 256 258 266 266 265 259 253 237 212 226 230 238 221 218 214 226 247 254 268 292 239 235 255 272 279 283 290 286 270 259
216 217 217 213 227 216 198 212 214 205 207 214 228 234 204 201 229 238 248 253 244 238 240 247 261 248 255 254 244 237 240 222 207 226 253 266 245 231 276 298 311 302 292 290 293
212 275 245 241 230 216 207 215 221 220 231 224 228 221 223 227 245 236 240 235 228 228 233 246 252 259 245 235 223 217 235 233 243 240 201 231 260 271 281 295 298 284 293 292 295
285 227 234 233 222 223 223 227 233 237 242 237 237 241 246 246 249 246 252 249 245 247 249 250 249 250 249 248 242 232 254 255 239 251 238 251 261 272 282 285 289 314 308 298 289
242 224 229 216 216 223 230 233 235 240 241 245 246 249 254 253 248 252 250 251 249 249 241 237 233 255 272 262 241 229 242 236 246 260 253 244 258 253 266 277 287 301 301 297 296
233 220 217 221 227 232 231 235 244 252 250 248 252 251 250 249 248 239 228 231 233 239 244 240 236 235 240 233 187 236 237 253 277 271 270 267 275 273 274 284 290 289 287 288 291
212 220 229 223 228 232 231 241 251 246 247 249 248 249 247 243 238 224 221 221 229 239 240 242 249 247 256 256 257 265 266 265 271 271 263 272 274 281 289 289 289 287 287 288 289
222 222 221 230 241 242 241 248 248 249 248 250 247 249 238 238 244 245 233 232 231 241 245 250 254 259 262 263 268 270 268 269 269 270 269 272 274 290 289 288 284 283 284 285 288
240 240 242 244 242 243 247 250 251 244 243 245 248 243 243 237 238 239 239 239 239 241 246 244 239 247 266 274 276 272 272 280 278 276 276 268 287 277 275 275 276 281 286 291 293